Regional Weather Roundup
Issued by NWS

Home | Current Version | Previous Version | Text Only | Print | Product List | Glossary Off
Versions: 1 2 3 4 5 6 7 8 9 10 11 12 13 14 15 16 17 18 19 20 21 22 23 24 25 26 27 28 29 30 31 32 33 34 35 36 37 38 39 40 41 42 43 44 45 46 47 48 49 50

000
ASUS43 KLOT 241004
RWRIL

ILLINOIS REGIONAL WEATHER ROUNDUP
NATIONAL WEATHER SERVICE CHICAGO/ROMEOVILLE IL
500 AM CDT WED MAY 24 2017

NOTE: "FAIR" INDICATES FEW OR NO CLOUDS BELOW 12,000 FEET WITH NO
SIGNIFICANT WEATHER AND/OR OBSTRUCTIONS TO VISIBILITY.

* THESE STATIONS ARE NOT UNDER NWS QUALITY CONTROL. THEY ALSO MAY NOT
  REPORT WEATHER SUCH AS PRECIPITATION OR FOG.

ILZ001-002-007-009-015-016-024-241100-
NORTHWEST ILLINOIS

CITY           SKY/WX    TMP DP  RH WIND       PRES   REMARKS
MOLINE         PTCLDY    48  45  89 CALM      29.62F
STERLING*      FOG       50  50 100 NE6       29.62F VSB 1/4
$$

ILZ003-004-008-010-011-017-018-241100-
NORTH CENTRAL ILLINOIS

CITY           SKY/WX    TMP DP  RH WIND       PRES   REMARKS
ROCKFORD       CLOUDY    54  53  97 NE8       29.64F FOG
FREEPORT*      CLOUDY    51  51  99 N5        29.64F FOG
ROCHELLE*      CLOUDY    52  52  99 CALM      29.62F FOG
DE KALB*       CLOUDY    54  53  98 NE6       29.62S FOG
$$

ILZ005-006-012>014-019>023-241100-
NORTHEAST ILLINOIS

CITY           SKY/WX    TMP DP  RH WIND       PRES   REMARKS
CHICAGO-OHARE  LGT RAIN  53  51  93 NE7       29.60F
CHICAGO-MIDWAY LGT RAIN  55  54  96 NE12      29.59F FOG
AURORA         CLOUDY    56  54  93 NE5       29.60F FOG
LANSING*       LGT RAIN  54  54 100 N7        29.59F
JOLIET*        CLOUDY    56  56  99 NE6       29.58F FOG
WAUKEGAN       LGT RAIN  50  50 100 NE6       29.62F FOG
DUPAGE AIRPORT LGT RAIN  53  53 100 NE10      29.59F FOG
WHEELING       LGT RAIN  51  51 100 N6        29.62F
MORRIS*        CLOUDY    55  54  97 CALM      29.58F FOG
ROMEOVILLE*    CLOUDY    54  54 100 NE13      29.58F
NORTHERLY ISL    N/A     54  52  93 MISG        N/A
$$

LMZ740>746-241100-
SOUTHERN LAKE MICHIGAN

STATION/POSITION SKY/WX   TEMP    WIND        PRES    VSBY  WAVE
                          AIR SEA DIR/SP/G                  HT/PER
                          (F)     (DEG/KT/KT) (MB)    (MI)  (FT/S)
SOUTHERN BUOY              47 45  360/ 10/ 12 1003.6          0
WILMETTE HARBOR            49 53                N/A           1/ 3
HARRISON CRIB              53     350/ 15/ 15   N/A
BURNHAM HARBOR             54     330/  9/ 14   N/A
CALUMET HARBOR             53     330/  8/ 12 1002.2F
BURNS HARBOR               51     360/ 14/ 17 1002.4F
MICHIGAN CITY              53     320/ 13/ 15   N/A
MICHIGAN CITY 6N           50 53  320/ 14/ 17   N/A           1/ 3
ST. JOSEPH                 57 57   90/  8/ 10 1001.6F         1/ 3
$$

ILZ025>027-034>036-040-047-049-050-058-095>099-241100-
WEST-CENTRAL ILLINOIS

CITY           SKY/WX    TMP DP  RH WIND       PRES   REMARKS
QUINCY         CLEAR     48  46  93 NW7       29.63S
GALESBURG*     CLOUDY    49  48  94 NW5       29.61F
MACOMB*        MOCLDY    49  48  97 NW7       29.64S
$$

ILZ028>032-037-038-041>044-048-051>054-059>061-241100-
CENTRAL ILLINOIS

CITY           SKY/WX    TMP DP  RH WIND       PRES   REMARKS
BLOOMINGTON    FOG       51  51 100 NW7       29.60F VSB 1/4
DECATUR        PTCLDY    52  51  97 CALM      29.58F FOG
PEORIA         CLOUDY    52  52 100 NW3       29.60F FOG
LACON*         CLOUDY    54  54 100 NW6       29.60F FOG
LINCOLN*       CLOUDY    55  55 100 NW3       29.59F FOG
SPRINGFIELD    PTCLDY    53  52  96 NW8       29.60F
TAYLORVILLE    NOT AVBL
$$

ILZ033-039-045-046-055>057-062-063-241100-
EAST-CENTRAL ILLINOIS

CITY           SKY/WX    TMP DP  RH WIND       PRES   REMARKS
CHAMPAIGN      CLOUDY    57  54  89 N3        29.57F
MATTOON        LGT RAIN  57  57 100 N5        29.56F
$$

ILZ079-100>102-241100-
SOUTHWEST ILLINOIS

CITY           SKY/WX    TMP DP  RH WIND       PRES   REMARKS
BELLEVILLE     CLEAR     52  50  93 W3        29.61F
CAHOKIA*       CLEAR     52  49  89 CALM      29.61F
SPARTA*        PTCLDY    55  52  91 NW5       29.60F
$$

ILZ064>066-069>071-074>076-080>082-084>086-088>090-092>094-241100-
SOUTH-CENTRAL ILLINOIS

CITY           SKY/WX    TMP DP  RH WIND       PRES   REMARKS
CARBONDALE     NOT AVBL
CAIRO*         DRIZZLE   57  55  93 NW3       29.59F
EFFINGHAM*     CLOUDY    57  57 100 NW6       29.59F
MARION         LGT RAIN  57  57 100 CALM      29.60S
MT. VERNON       N/A     55  55 100 CALM      29.58F
CENTRALIA*     CLOUDY    58  56  95 W6        29.58F
SALEM*         CLOUDY    58  55  89 NW3       29.58F
$$

ILZ067-068-072-073-078-083-087-091-241100-
SOUTHEAST ILLINOIS

CITY           SKY/WX    TMP DP  RH WIND       PRES   REMARKS
LAWRENCEVILLE  CLOUDY    59  56  89 NW8       29.55F
FLORA*         DRIZZLE   58  56  90 NW5       29.57F
FAIRFIELD*     DRIZZLE   57  56  98 CALM      29.56F
HARRISBURG*    CLOUDY    57  55  92 CALM      29.58F
ROBINSON*      DRIZZLE   57  56  95 NW6       29.56F
CARMI*         RAIN      58  57  97 NW10      29.56F
$$

ABBREVIATIONS USED IN REMARKS
   TC - TEMPERATURE IN CELSIUS
  WCI - WIND CHILL INDEX
   HX - HEAT INDEX
  VSB - VISIBILITY
$$





USA.gov is the U.S. government's official web portal to all federal, state and local government web resources and services.